When you browse on this site, cookies collect data to enhance your experience and personalize the content and advertising you see.
Visit our Privacy Policy to learn more. By continuing to use the site, you agree to this use of cookies and data.
  • In Hungary
  • List of Countries
  • For 7 days
  • Water Temperature
  • Weather Map
  • News
  • Weather Widgets
  • user-avatar
    Login

    Hourly Weather Syhnal'ne

    Today, 10 April, Friday

    Time Temperature Precipitation Wind Pressure Humidity
    00:00 +11°C° 0 mm 1 mps 743 mmHg 60%
    01:00 +10°C° 0 mm 1 mps 743 mmHg 61%
    02:00 +10°C° 0 mm 1 mps 742 mmHg 61%
    03:00 +9°C° 0 mm 1 mps 742 mmHg 61%
    04:00 +9°C° 0 mm 1 mps 742 mmHg 61%
    05:00 +8°C° 0 mm 2 mps 742 mmHg 62%
    06:00 +7°C° 0 mm 2 mps 742 mmHg 63%
    07:00 +9°C° 0 mm 2 mps 741 mmHg 58%
    08:00 +10°C° 0 mm 3 mps 741 mmHg 53%
    09:00 +12°C° 0 mm 3 mps 741 mmHg 47%
    10:00 +14°C° 0 mm 3 mps 741 mmHg 43%
    11:00 +16°C° 0 mm 3 mps 741 mmHg 38%
    12:00 +18°C° 0 mm 3 mps 741 mmHg 34%
    13:00 +18°C° 0 mm 4 mps 740 mmHg 33%
    14:00 +19°C° 0 mm 4 mps 740 mmHg 32%
    15:00 +19°C° 0 mm 4 mps 739 mmHg 31%
    16:00 +19°C° 0 mm 4 mps 739 mmHg 33%
    17:00 +18°C° 0 mm 4 mps 739 mmHg 36%
    18:00 +18°C° 0 mm 3 mps 738 mmHg 39%
    19:00 +15°C° 0.1 mm 4 mps 738 mmHg 46%
    20:00 +13°C° 0.1 mm 4 mps 739 mmHg 52%
    21:00 +11°C° 0.1 mm 4 mps 739 mmHg 59%
    22:00 +11°C° 0.9 mm 4 mps 739 mmHg 67%
    23:00 +10°C° 0.9 mm 3 mps 739 mmHg 74%

    Tomorrow, 11 April, Saturday

    Time Temperature Precipitation Wind Pressure Humidity
    00:00 +10°C° 0.9 mm 3 mps 738 mmHg 82%
    01:00 +8°C° 0.1 mm 4 mps 739 mmHg 81%
    02:00 +8°C° 0.1 mm 5 mps 739 mmHg 81%
    03:00 +7°C° 0.1 mm 5 mps 739 mmHg 80%
    04:00 +7°C° 0.1 mm 5 mps 739 mmHg 79%
    05:00 +7°C° 0.1 mm 5 mps 739 mmHg 78%
    06:00 +6°C° 0.1 mm 5 mps 740 mmHg 78%
    07:00 +7°C° 0 mm 6 mps 740 mmHg 70%
    08:00 +7°C° 0 mm 6 mps 740 mmHg 62%
    09:00 +8°C° 0 mm 7 mps 741 mmHg 54%
    10:00 +8°C° 0 mm 6 mps 741 mmHg 50%
    11:00 +9°C° 0 mm 6 mps 742 mmHg 46%
    12:00 +9°C° 0 mm 6 mps 742 mmHg 42%
    13:00 +10°C° 0 mm 6 mps 742 mmHg 41%
    14:00 +10°C° 0 mm 6 mps 742 mmHg 39%
    15:00 +10°C° 0 mm 6 mps 742 mmHg 38%
    16:00 +10°C° 0 mm 6 mps 743 mmHg 39%
    17:00 +10°C° 0 mm 6 mps 743 mmHg 40%
    18:00 +9°C° 0 mm 6 mps 743 mmHg 41%
    19:00 +8°C° 0 mm 5 mps 743 mmHg 45%
    20:00 +7°C° 0 mm 5 mps 743 mmHg 50%
    21:00 +6°C° 0 mm 4 mps 744 mmHg 54%
    22:00 +6°C° 0 mm 4 mps 744 mmHg 57%
    23:00 +5°C° 0 mm 5 mps 744 mmHg 60%

    Day after tomorrow, 12 April, Sunday

    Time Temperature Precipitation Wind Pressure Humidity
    00:00 +5°C° 0 mm 5 mps 745 mmHg 62%
    01:00 +4°C° 0 mm 4 mps 745 mmHg 63%
    02:00 +4°C° 0 mm 4 mps 745 mmHg 64%
    03:00 +3°C° 0 mm 4 mps 745 mmHg 64%
    04:00 +1°C° 0 mm 4 mps 746 mmHg 63%
    05:00 +1°C° 0 mm 4 mps 746 mmHg 62%
    06:00 0°C° 0 mm 4 mps 747 mmHg 60%
    07:00 +3°C° 0 mm 4 mps 747 mmHg 54%
    08:00 +4°C° 0 mm 4 mps 748 mmHg 48%
    09:00 +5°C° 0 mm 5 mps 748 mmHg 41%
    10:00 +6°C° 0 mm 5 mps 749 mmHg 40%
    11:00 +7°C° 0 mm 5 mps 749 mmHg 38%
    12:00 +8°C° 0 mm 6 mps 749 mmHg 37%
    13:00 +8°C° 0 mm 6 mps 749 mmHg 35%
    14:00 +8°C° 0 mm 6 mps 749 mmHg 34%
    15:00 +9°C° 0 mm 6 mps 749 mmHg 32%
    16:00 +8°C° 0 mm 5 mps 749 mmHg 32%
    17:00 +8°C° 0 mm 5 mps 749 mmHg 31%
    18:00 +8°C° 0 mm 4 mps 749 mmHg 31%
    19:00 +8°C° 0 mm 3 mps 749 mmHg 34%
    20:00 +7°C° 0 mm 2 mps 749 mmHg 37%
    21:00 +7°C° 0 mm 1 mps 749 mmHg 40%
    22:00 +6°C° 0 mm 1 mps 749 mmHg 41%
    23:00 +6°C° 0 mm 1 mps 749 mmHg 42%

    13 April, Monday

    Time Temperature Precipitation Wind Pressure Humidity
    00:00 +4°C° 0 mm 0 mps 749 mmHg 43%
    01:00 +5°C° 0 mm 1 mps 749 mmHg 43%
    02:00 +5°C° 0 mm 1 mps 749 mmHg 44%
    03:00 +5°C° 0 mm 1 mps 748 mmHg 45%
    04:00 +4°C° 0 mm 1 mps 748 mmHg 45%
    05:00 +4°C° 0 mm 1 mps 748 mmHg 46%
    06:00 +3°C° 0 mm 2 mps 748 mmHg 47%
    07:00 +5°C° 0 mm 2 mps 748 mmHg 44%
    08:00 +5°C° 0 mm 3 mps 748 mmHg 42%
    09:00 +8°C° 0 mm 3 mps 748 mmHg 39%
    10:00 +9°C° 0 mm 3 mps 748 mmHg 37%
    11:00 +11°C° 0 mm 3 mps 748 mmHg 34%
    12:00 +12°C° 0 mm 4 mps 747 mmHg 32%
    13:00 +12°C° 0 mm 4 mps 747 mmHg 31%
    14:00 +13°C° 0 mm 4 mps 747 mmHg 31%
    15:00 +14°C° 0 mm 4 mps 746 mmHg 31%
    16:00 +13°C° 0 mm 5 mps 746 mmHg 34%
    17:00 +12°C° 0 mm 5 mps 745 mmHg 38%
    18:00 +11°C° 0 mm 6 mps 745 mmHg 41%
    19:00 +9°C° 0 mm 5 mps 745 mmHg 43%
    20:00 +7°C° 0 mm 5 mps 745 mmHg 46%
    21:00 +6°C° 0 mm 4 mps 745 mmHg 48%
    22:00 +5°C° 0 mm 4 mps 744 mmHg 48%
    23:00 +5°C° 0 mm 4 mps 744 mmHg 49%

    14 April, Tuesday

    Time Temperature Precipitation Wind Pressure Humidity
    00:00 +4°C° 0 mm 3 mps 744 mmHg 50%
    01:00 +3°C° 0 mm 3 mps 743 mmHg 52%
    02:00 +3°C° 0 mm 3 mps 743 mmHg 55%
    03:00 +3°C° 0 mm 3 mps 742 mmHg 58%
    04:00 +3°C° 0 mm 3 mps 742 mmHg 62%
    05:00 +2°C° 0 mm 3 mps 742 mmHg 66%
    06:00 +2°C° 0 mm 3 mps 741 mmHg 71%
    07:00 +4°C° 0 mm 4 mps 741 mmHg 64%
    08:00 +6°C° 0 mm 5 mps 741 mmHg 58%
    09:00 +7°C° 0 mm 6 mps 741 mmHg 52%
    10:00 +8°C° 0 mm 7 mps 740 mmHg 49%
    11:00 +9°C° 0 mm 7 mps 740 mmHg 46%
    12:00 +10°C° 0 mm 7 mps 739 mmHg 43%
    13:00 +10°C° 0 mm 7 mps 739 mmHg 43%
    14:00 +10°C° 0 mm 7 mps 739 mmHg 42%
    15:00 +11°C° 0 mm 7 mps 738 mmHg 42%
    16:00 +10°C° 0 mm 7 mps 738 mmHg 46%
    17:00 +10°C° 0 mm 7 mps 737 mmHg 49%
    18:00 +9°C° 0 mm 6 mps 737 mmHg 53%
    19:00 +8°C° 0 mm 6 mps 736 mmHg 59%
    20:00 +8°C° 0 mm 5 mps 736 mmHg 65%
    21:00 +7°C° 0 mm 5 mps 736 mmHg 71%
    22:00 +7°C° 0.1 mm 5 mps 736 mmHg 75%
    23:00 +7°C° 0.1 mm 5 mps 735 mmHg 79%

    15 April, Wednesday

    Time Temperature Precipitation Wind Pressure Humidity
    00:00 +7°C° 0.1 mm 5 mps 735 mmHg 83%
    01:00 +7°C° 0.3 mm 5 mps 734 mmHg 85%
    02:00 +6°C° 0.3 mm 4 mps 734 mmHg 87%
    03:00 +6°C° 0.3 mm 4 mps 734 mmHg 89%
    04:00 +5°C° 2.1 mm 5 mps 734 mmHg 90%
    05:00 +3°C° 2.1 mm 6 mps 734 mmHg 91%
    06:00 +2°C° 2.1 mm 7 mps 734 mmHg 92%
    07:00 +2°C° 0.8 mm 7 mps 734 mmHg 86%
    08:00 +2°C° 0.8 mm 7 mps 735 mmHg 80%
    09:00 +2°C° 0.8 mm 7 mps 735 mmHg 74%
    10:00 +3°C° 0 mm 7 mps 736 mmHg 64%
    11:00 +5°C° 0 mm 6 mps 737 mmHg 54%
    12:00 +7°C° 0 mm 6 mps 738 mmHg 44%
    13:00 +8°C° 0 mm 6 mps 738 mmHg 43%
    14:00 +8°C° 0 mm 6 mps 738 mmHg 43%
    15:00 +8°C° 0 mm 7 mps 738 mmHg 42%
    16:00 +6°C° 0.1 mm 7 mps 738 mmHg 46%
    17:00 +6°C° 0.1 mm 7 mps 738 mmHg 50%
    18:00 +5°C° 0.1 mm 7 mps 738 mmHg 54%
    19:00 +4°C° 0.1 mm 6 mps 738 mmHg 56%
    20:00 +3°C° 0.1 mm 5 mps 739 mmHg 59%
    21:00 +4°C° 0.1 mm 4 mps 739 mmHg 61%
    22:00 +3°C° 0 mm 4 mps 739 mmHg 62%
    23:00 +1°C° 0 mm 4 mps 739 mmHg 63%
    Show more